• In Latvia
  • List of Countries
  • For 7 days
  • Water Temperature
  • Satellite Maps
  • Weather Map
  • Weather Widgets
  • user-avatar
    Login

    Hourly Weather Eisenstadt

    Today, 27 June, Tuesday

    Time Temperature Precipitation Wind Pressure Humidity
    00:00 +18°C° 0 mm 2 mps 720 mmHg 86%
    01:00 +17°C° 0 mm 2 mps 720 mmHg 87%
    02:00 +17°C° 0 mm 2 mps 719 mmHg 87%
    03:00 +16°C° 0 mm 2 mps 719 mmHg 88%
    04:00 +16°C° 0 mm 2 mps 719 mmHg 88%
    05:00 +18°C° 0 mm 2 mps 719 mmHg 82%
    06:00 +20°C° 0 mm 3 mps 719 mmHg 77%
    07:00 +22°C° 0 mm 3 mps 720 mmHg 71%
    08:00 +24°C° 0 mm 3 mps 720 mmHg 66%
    09:00 +25°C° 0 mm 4 mps 720 mmHg 60%
    10:00 +27°C° 0 mm 4 mps 720 mmHg 55%
    11:00 +28°C° 0 mm 4 mps 720 mmHg 52%
    12:00 +28°C° 0 mm 5 mps 719 mmHg 49%
    13:00 +29°C° 0 mm 5 mps 719 mmHg 46%
    14:00 +29°C° 0.1 mm 5 mps 719 mmHg 47%
    15:00 +29°C° 0.1 mm 5 mps 718 mmHg 48%
    16:00 +30°C° 0.1 mm 5 mps 718 mmHg 49%
    17:00 +28°C° 0 mm 4 mps 718 mmHg 55%
    18:00 +27°C° 0 mm 3 mps 717 mmHg 62%
    19:00 +25°C° 0 mm 3 mps 717 mmHg 69%
    20:00 +24°C° 0 mm 3 mps 717 mmHg 72%
    21:00 +22°C° 0 mm 3 mps 717 mmHg 75%
    22:00 +21°C° 0 mm 3 mps 717 mmHg 79%
    23:00 +20°C° 0 mm 3 mps 717 mmHg 80%

    Tomorrow, 28 June, Wednesday

    Time Temperature Precipitation Wind Pressure Humidity
    00:00 +20°C° 0 mm 3 mps 717 mmHg 82%
    01:00 +19°C° 0 mm 3 mps 716 mmHg 83%
    02:00 +19°C° 0 mm 3 mps 716 mmHg 84%
    03:00 +19°C° 0 mm 3 mps 716 mmHg 84%
    04:00 +18°C° 0 mm 3 mps 715 mmHg 84%
    05:00 +20°C° 0 mm 3 mps 715 mmHg 79%
    06:00 +21°C° 0 mm 4 mps 715 mmHg 73%
    07:00 +23°C° 0 mm 4 mps 715 mmHg 67%
    08:00 +26°C° 0 mm 5 mps 715 mmHg 61%
    09:00 +27°C° 0 mm 6 mps 715 mmHg 55%
    10:00 +29°C° 0 mm 7 mps 715 mmHg 49%
    11:00 +30°C° 0 mm 7 mps 714 mmHg 48%
    12:00 +31°C° 0 mm 8 mps 714 mmHg 47%
    13:00 +32°C° 0 mm 8 mps 713 mmHg 46%
    14:00 +32°C° 0.1 mm 8 mps 713 mmHg 48%
    15:00 +32°C° 0.1 mm 8 mps 713 mmHg 50%
    16:00 +31°C° 0.1 mm 9 mps 712 mmHg 51%
    17:00 +29°C° 0 mm 7 mps 712 mmHg 55%
    18:00 +27°C° 0 mm 6 mps 711 mmHg 60%
    19:00 +26°C° 0 mm 5 mps 711 mmHg 64%
    20:00 +25°C° 0.7 mm 5 mps 711 mmHg 71%
    21:00 +22°C° 0.7 mm 5 mps 711 mmHg 78%
    22:00 +21°C° 0.7 mm 5 mps 711 mmHg 84%
    23:00 +20°C° 0.2 mm 5 mps 710 mmHg 85%

    Day after tomorrow, 29 June, Thursday

    Time Temperature Precipitation Wind Pressure Humidity
    00:00 +20°C° 0.2 mm 5 mps 710 mmHg 86%
    01:00 +20°C° 0.2 mm 6 mps 709 mmHg 86%
    02:00 +19°C° 0 mm 5 mps 709 mmHg 86%
    03:00 +19°C° 0 mm 5 mps 709 mmHg 87%
    04:00 +17°C° 0 mm 5 mps 708 mmHg 87%
    05:00 +19°C° 0 mm 6 mps 709 mmHg 81%
    06:00 +20°C° 0 mm 7 mps 709 mmHg 75%
    07:00 +21°C° 0 mm 7 mps 709 mmHg 70%
    08:00 +22°C° 0.1 mm 7 mps 709 mmHg 65%
    09:00 +23°C° 0.1 mm 8 mps 710 mmHg 60%
    10:00 +26°C° 0.1 mm 8 mps 710 mmHg 55%
    11:00 +26°C° 0.7 mm 8 mps 711 mmHg 56%
    12:00 +26°C° 0.7 mm 7 mps 711 mmHg 56%
    13:00 +26°C° 0.7 mm 7 mps 711 mmHg 57%
    14:00 +26°C° 0.6 mm 6 mps 712 mmHg 57%
    15:00 +26°C° 0.6 mm 6 mps 712 mmHg 58%
    16:00 +25°C° 0.6 mm 5 mps 712 mmHg 58%
    17:00 +23°C° 0.4 mm 5 mps 712 mmHg 62%
    18:00 +22°C° 0.4 mm 4 mps 713 mmHg 67%
    19:00 +20°C° 0.4 mm 3 mps 713 mmHg 71%
    20:00 +19°C° 0 mm 3 mps 713 mmHg 73%
    21:00 +18°C° 0 mm 3 mps 714 mmHg 74%
    22:00 +17°C° 0 mm 3 mps 714 mmHg 76%
    23:00 +16°C° 0 mm 3 mps 715 mmHg 78%

    30 June, Friday

    Time Temperature Precipitation Wind Pressure Humidity
    00:00 +15°C° 0 mm 2 mps 715 mmHg 80%
    01:00 +14°C° 0 mm 2 mps 715 mmHg 82%
    02:00 +14°C° 0 mm 2 mps 716 mmHg 82%
    03:00 +14°C° 0 mm 2 mps 716 mmHg 81%
    04:00 +14°C° 0 mm 2 mps 716 mmHg 81%
    05:00 +15°C° 0 mm 2 mps 717 mmHg 77%
    06:00 +16°C° 0 mm 2 mps 717 mmHg 73%
    07:00 +17°C° 0 mm 2 mps 718 mmHg 69%
    08:00 +19°C° 0 mm 2 mps 718 mmHg 64%
    09:00 +20°C° 0 mm 2 mps 718 mmHg 60%
    10:00 +23°C° 0 mm 2 mps 719 mmHg 55%
    11:00 +24°C° 0.1 mm 3 mps 719 mmHg 54%
    12:00 +23°C° 0.1 mm 4 mps 719 mmHg 52%
    13:00 +25°C° 0.1 mm 4 mps 718 mmHg 51%
    14:00 +26°C° 0.1 mm 5 mps 718 mmHg 49%
    15:00 +26°C° 0.1 mm 5 mps 718 mmHg 47%
    16:00 +26°C° 0.1 mm 6 mps 718 mmHg 45%
    17:00 +24°C° 0 mm 6 mps 718 mmHg 49%
    18:00 +23°C° 0 mm 5 mps 718 mmHg 52%
    19:00 +22°C° 0 mm 5 mps 717 mmHg 56%
    20:00 +21°C° 0 mm 5 mps 718 mmHg 58%
    21:00 +20°C° 0 mm 5 mps 718 mmHg 60%
    22:00 +19°C° 0 mm 4 mps 719 mmHg 61%
    23:00 +18°C° 0 mm 4 mps 718 mmHg 67%

    1 July, Saturday

    Time Temperature Precipitation Wind Pressure Humidity
    00:00 +17°C° 0 mm 3 mps 718 mmHg 72%
    01:00 +15°C° 0 mm 2 mps 718 mmHg 78%
    02:00 +15°C° 0 mm 2 mps 718 mmHg 78%
    03:00 +15°C° 0 mm 1 mps 718 mmHg 79%
    04:00 +15°C° 0 mm 1 mps 718 mmHg 80%
    05:00 +16°C° 0 mm 1 mps 719 mmHg 78%
    06:00 +18°C° 0 mm 1 mps 719 mmHg 75%
    07:00 +19°C° 0 mm 1 mps 719 mmHg 72%
    08:00 +19°C° 0.3 mm 1 mps 719 mmHg 69%
    09:00 +20°C° 0.3 mm 1 mps 719 mmHg 66%
    10:00 +21°C° 0.3 mm 1 mps 720 mmHg 63%
    11:00 +22°C° 0.3 mm 1 mps 720 mmHg 59%
    12:00 +24°C° 0.3 mm 1 mps 719 mmHg 55%
    13:00 +25°C° 0.3 mm 1 mps 719 mmHg 51%
    14:00 +25°C° 0.4 mm 1 mps 719 mmHg 50%
    15:00 +25°C° 0.4 mm 1 mps 719 mmHg 50%
    16:00 +25°C° 0.4 mm 1 mps 719 mmHg 49%
    17:00 +24°C° 0.1 mm 2 mps 719 mmHg 54%
    18:00 +23°C° 0.1 mm 2 mps 720 mmHg 60%
    19:00 +21°C° 0.1 mm 3 mps 720 mmHg 65%
    20:00 +19°C° 0.2 mm 3 mps 720 mmHg 69%
    21:00 +18°C° 0.2 mm 4 mps 721 mmHg 73%
    22:00 +15°C° 0.2 mm 5 mps 721 mmHg 77%
    23:00 +15°C° 0 mm 5 mps 722 mmHg 78%

    2 July, Sunday

    Time Temperature Precipitation Wind Pressure Humidity
    00:00 +14°C° 0 mm 5 mps 722 mmHg 78%
    01:00 +14°C° 0 mm 5 mps 722 mmHg 79%
    02:00 +13°C° 0 mm 5 mps 723 mmHg 79%
    03:00 +13°C° 0 mm 5 mps 723 mmHg 80%
    04:00 +12°C° 0 mm 5 mps 723 mmHg 81%
    05:00 +13°C° 0 mm 5 mps 724 mmHg 77%
    06:00 +14°C° 0 mm 5 mps 724 mmHg 73%
    07:00 +15°C° 0 mm 6 mps 724 mmHg 68%
    08:00 +16°C° 0 mm 5 mps 725 mmHg 62%
    09:00 +19°C° 0 mm 5 mps 725 mmHg 56%
    10:00 +20°C° 0 mm 5 mps 725 mmHg 49%
    11:00 +21°C° 0 mm 5 mps 725 mmHg 47%
    12:00 +22°C° 0 mm 5 mps 724 mmHg 44%
    13:00 +23°C° 0 mm 5 mps 724 mmHg 42%
    14:00 +23°C° 0 mm 5 mps 724 mmHg 43%
    15:00 +23°C° 0 mm 5 mps 724 mmHg 45%
    16:00 +23°C° 0 mm 5 mps 723 mmHg 46%
    17:00 +21°C° 0 mm 5 mps 723 mmHg 52%
    18:00 +20°C° 0 mm 4 mps 723 mmHg 57%
    19:00 +19°C° 0 mm 4 mps 723 mmHg 63%
    20:00 +18°C° 0 mm 4 mps 723 mmHg 67%
    21:00 +16°C° 0 mm 3 mps 723 mmHg 72%
    22:00 +14°C° 0 mm 3 mps 723 mmHg 77%
    23:00 +14°C° 0 mm 3 mps 723 mmHg 79%
    Show more